User: anonymous   Login
Location: Geroldsau
(48.7259°N, 8.2466°E)
Time: 03:16:08
(UTC+00:00)
Language:

SL-16 R/B - Orbit

View from above orbital plane
View from above orbital plane
View from above satellite
View from above satellite

Ground track
Ground track

The orbit data is extracted from the following two-line orbital elements,

1 28353U 04021B   21264.15731049  .00000103  00000-0  78857-4 0  9996
2 28353  70.9999  53.0866 0005818 333.9293  26.1535 14.14251369892274
Epoch (UTC): 21 September 2021 03:46:31
Eccentricity: 0.0005818
inclination: 70.9999°
perigee height: 840 km
apogee height: 849 km
right ascension of ascending node: 53.0866°
argument of perigee: 333.9293°
revolutions per day: 14.14251369
mean anomaly at epoch: 26.1535°
orbit number at epoch: 89227

The dashed part of the orbit path shows where the satellite is in the earth's shadow,  

DLR